Content
SEND FEEDBACK

Daily
Averages
Monthly
Summary
United States of America

GREENTOWN, PENNSYLVANIA


Home > North America > United States > Pennsylvania
Elevation: 1360 feet     Latitude: 41 24N     Longitude: 075 14W

WEATHER
 
SELECT A DAY
Number of Records: 182,325;   Date Range: 9/29/99 - 8/12/14
 
SHARE

PRINT THIS DATA

[ ← Previous Day ]
WEATHER ALMANAC - FEBRUARY 13, 2013
[ Next Day → ]
[ °C ]   °F
Weather ElementAverageHighLow
Temperature29.8 °F37.9 °F (2:53 pm)19 °F (4:53 am)
Dewpoint24.2 °F28.9 °F (8:53 pm)15.1 °F (6:53 am)
Humidity80.6 %93 % (8:07 pm)57 % (2:53 pm)
Barometer29.75 in29.94 in (1:53 am)29.63 in (11:38 pm)
Wind Speed3.9 mph6.9 mph (11:53 am)
Weather ElementAverage
Visibility6.1 mi
Wind DirectionSSW (217.5 °)

Weather ElementTotal
Precipitation0.10 in
Heating Degree Days36.6 (Base 65)
Averaged from 36 records on February 13, 2013
WEATHER CONDITIONS BREAKOUT
WIND DIRECTION BREAKOUT
WEATHER BY HOUR - FEBRUARY 13, 2013
[ °C ]   °F
Local TimeTemperatureDewpointHumidityBarometerVisibilityWind DirectionWind SpeedGust SpeedPrecipitationEventsConditions
1:09 AM26.6 °F19.4 °F74 %29.85 in10.0 miWNW (300°)4.6 mphPartly Cloudy
1:53 AM25.0 °F19.0 °F78 %29.94 in10.0 miWNW (290°)4.6 mphClear
2:53 AM24.1 °F19.0 °F81 %29.92 in10.0 miNW (310°)5.8 mphClear
3:53 AM21.9 °F18.0 °F85 %29.90 in10.0 miCalmClear
4:53 AM19.0 °F16.0 °F88 %29.89 in9.0 miNNW (330°)3.5 mphClear
5:53 AM19.9 °F16.0 °F85 %29.88 in10.0 miNNW (330°)5.8 mphClear
6:53 AM19.0 °F15.1 °F85 %29.89 in10.0 miCalmClear
7:53 AM19.9 °F16.0 °F85 %29.89 in7.0 miCalmClear
8:53 AM28.0 °F21.9 °F78 %29.86 in10.0 miCalmClear
9:53 AM32.0 °F21.0 °F64 %29.84 in10.0 miNorth (350°)4.6 mphClear
10:53 AM33.1 °F21.0 °F61 %29.84 in10.0 miNNW (330°)4.6 mphClear
11:53 AM34.0 °F21.9 °F61 %29.83 in10.0 miSE (140°)6.9 mphClear
12:53 PM36.0 °F23.0 °F59 %29.78 in10.0 miSSE (150°)6.9 mphClear
1:53 PM37.0 °F24.1 °F59 %29.77 in10.0 miVariable3.5 mphClear
2:53 PM37.9 °F24.1 °F57 %29.73 in10.0 miCalmClear
3:53 PM36.0 °F23.0 °F59 %29.72 in10.0 miESE (120°)6.9 mphOvercast
4:53 PM35.1 °F23.0 °F61 %29.71 in10.0 miSE (140°)5.8 mphOvercast
5:53 PM34.0 °F24.1 °F67 %29.72 in10.0 miCalmOvercast
6:53 PM33.1 °F24.1 °F70 %29.70 in10.0 miCalmOvercast
7:42 PM33.8 °F24.8 °F70 %29.64 in3.0 miWNW (300°)3.5 mph0.00 inSnowLight Snow
7:53 PM32.0 °F27.0 °F82 %29.72 in1.8 miNW (310°)3.5 mph0.00 inSnowLight Snow
8:07 PM30.2 °F28.4 °F93 %29.65 in0.8 miCalm0.01 inSnowLight Snow
8:49 PM30.2 °F28.4 °F93 %29.65 in1.0 miNW (320°)4.6 mph0.03 inSnowLight Snow
8:53 PM30.9 °F28.9 °F92 %29.71 in1.0 miNW (320°)4.6 mph0.03 inSnowLight Snow
9:17 PM30.2 °F28.4 °F93 %29.64 in1.2 miNW (320°)4.6 mph0.00 inSnowLight Snow
9:24 PM30.2 °F28.4 °F93 %29.64 in0.8 miNW (320°)4.6 mph0.01 inSnowLight Snow
9:29 PM30.2 °F28.4 °F93 %29.64 in1.0 miNW (320°)3.5 mph0.01 inSnowLight Snow
9:53 PM30.9 °F28.9 °F92 %29.70 in2.0 miNW (320°)4.6 mph0.01 inSnowLight Snow
10:00 PM30.2 °F28.4 °F93 %29.64 in1.5 miNW (320°)4.6 mph0.00 inSnowLight Snow
10:26 PM30.2 °F28.4 °F93 %29.64 in2.5 miNW (320°)3.5 mph0.00 inSnowLight Snow
10:37 PM30.2 °F28.4 °F93 %29.64 in2.5 miNW (320°)4.6 mph0.00 inSnowLight Snow
10:53 PM30.9 °F28.9 °F92 %29.69 in2.5 miNW (310°)5.8 mph0.00 inSnowLight Snow
11:01 PM30.2 °F28.4 °F93 %29.64 in2.5 miNW (320°)6.9 mph0.00 inSnowLight Snow
11:22 PM30.2 °F28.4 °F93 %29.64 in2.5 miNW (310°)6.9 mph0.00 inSnowLight Snow
11:38 PM30.2 °F28.4 °F93 %29.63 in3.0 miWNW (300°)4.6 mph0.00 inSnowLight Snow
11:53 PM30.9 °F28.9 °F92 %29.68 in5.0 miNW (310°)5.8 mph0.00 inSnowLight Snow
Hourly data recorded from KMPO, located miles away from Greentown, Pennsylvania







STORIES FROM OUR PARTNERS